Temperature
18 18 18 18 17 16 16 16 17 16 15 14 14 14 13 13 13 12 12 12 12 12 11 11 11 10 10 9 8 8 7 7 7 7 8 8 8 8 8 8 8 7 7
17 17 17 16 16 15 15 15 15 15 15 14 14 14 13 13 12 12 12 12 11 11 11 10 10 9 9 8 7 7 7 6 6 6 6 5 6 6 6 6 6 6 6
17 16 16 15 15 14 14 15 15 14 14 14 14 13 13 12 12 12 12 11 11 11 10 10 9 8 8 7 6 6 6 6 5 5 4 3 2 2 4 3 5 4 4
16 15 15 15 14 14 14 14 14 14 14 13 13 13 13 13 12 12 11 11 10 10 9 9 8 8 7 6 6 5 5 5 5 4 4 3 2 1 1 2 3 3 3
16 15 15 14 14 14 13 13 13 13 13 13 13 13 13 13 12 11 11 10 10 9 9 8 8 7 6 5 5 5 4 4 4 4 3 3 2 1 -1 -1 -1 0 1
14 14 14 13 13 13 13 13 13 13 13 13 13 13 13 12 12 11 11 10 9 9 8 8 7 6 5 5 4 4 4 3 3 3 2 1 0 -0 -1 -2 -2 -2 -2
13 13 13 13 13 13 12 12 12 12 12 12 12 12 12 12 11 11 10 9 8 8 7 7 6 5 5 4 4 3 3 3 3 2 2 1 0 -1 -1 -2 -3 -3 -3
12 12 13 13 13 12 12 12 12 12 12 12 12 12 11 11 10 9 9 8 8 7 7 6 5 5 4 3 3 3 3 3 2 2 1 1 -0 -1 -2 -3 -4 -4 -4
10 11 12 12 12 12 12 12 12 12 12 12 12 11 11 10 9 9 8 7 7 7 6 5 5 4 3 3 3 3 2 2 2 1 0 -0 -1 -2 -3 -4 -4 -6 -6
9 10 11 11 12 12 12 12 12 12 12 12 11 11 10 9 8 8 7 7 6 6 5 5 4 3 3 3 2 2 1 1 1 -0 -1 -2 -3 -4 -4 -4 -5 -6 -6
9 10 11 11 11 11 11 11 11 12 11 11 11 10 9 9 8 7 6 6 6 5 5 4 3 3 2 2 2 1 1 -0 -1 -2 -3 -4 -4 -5 -5 -5 -6 -6 -6
9 10 11 11 11 11 11 11 11 11 11 10 10 9 9 8 7 6 6 5 5 4 3 3 2 2 2 1 1 0 -0 -1 -2 -3 -4 -5 -5 -6 -6 -6 -7 -7 -7
9 10 11 11 11 11 11 11 10 10 10 9 9 8 7 7 6 5 5 5 4 3 2 2 2 1 1 1 0 -1 -1 -2 -3 -4 -5 -6 -6 -7 -7 -7 -7 -7 -7
9 10 10 10 10 10 10 10 9 9 9 8 8 7 6 6 5 4 4 4 3 2 2 1 1 1 0 -0 -0 -1 -2 -3 -4 -5 -6 -6 -7 -7 -8 -8 -8 -8 -8
9 10 10 10 10 10 9 8 8 8 7 7 7 6 5 5 4 4 3 2 2 1 1 1 0 -0 -0 -1 -1 -3 -4 -5 -5 -6 -6 -7 -7 -8 -8 -8 -8 -8 -8
9 10 10 10 10 9 8 8 7 7 6 6 6 5 4 4 3 3 2 2 1 1 0 -0 -0 -1 -1 -2 -3 -4 -5 -6 -6 -7 -7 -7 -8 -8 -8 -8 -8 -8 -8
9 10 10 10 10 9 8 8 7 6 5 5 4 4 3 3 3 2 1 1 1 0 -0 -1 -1 -2 -2 -3 -4 -5 -6 -6 -7 -7 -8 -8 -9 -9 -9 -9 -8 -8 -8
10 10 10 10 10 9 8 7 6 5 5 4 3 3 3 2 2 1 0 0 -0 -1 -1 -2 -2 -3 -3 -4 -5 -6 -7 -7 -8 -8 -9 -9 -9 -9 -9 -9 -8 -8 -9
11 11 11 10 9 8 7 6 5 4 4 3 3 2 2 2 1 0 -0 -1 -1 -1 -2 -2 -3 -4 -4 -5 -6 -8 -8 -8 -8 -9 -9 -9 -9 -9 -9 -8 -9 -9 -10
11 11 10 10 8 7 6 5 5 4 3 2 2 2 1 1 0 -0 -1 -1 -2 -2 -3 -3 -4 -4 -5 -6 -8 -9 -9 -9 -9 -9 -9 -9 -10 -9 -9 -9 -10 -10 -10
10 10 9 8 7 6 5 4 4 3 2 2 1 1 0 -0 -1 -1 -2 -2 -3 -3 -3 -4 -4 -5 -6 -7 -8 -9 -9 -9 -9 -9 -10 -10 -10 -9 -10 -10 -11 -11 -10
9 8 7 6 5 5 4 3 3 2 1 1 1 0 -0 -1 -2 -2 -2 -3 -3 -3 -4 -4 -5 -6 -7 -8 -9 -9 -9 -9 -9 -10 -10 -10 -10 -10 -11 -11 -11 -11 -11
7 6 6 5 4 3 3 2 2 1 1 0 -0 -1 -1 -2 -2 -3 -3 -3 -3 -4 -5 -6 -7 -8 -8 -9 -9 -10 -9 -10 -10 -10 -10 -10 -11 -11 -11 -11 -11 -11 -12
6 5 5 4 3 2 1 1 1 0 -0 -1 -1 -2 -2 -2 -3 -3 -3 -4 -4 -5 -6 -8 -9 -9 -9 -9 -10 -10 -10 -10 -10 -10 -11 -11 -11 -11 -11 -11 -11 -11 -12
4 4 4 3 2 1 0 0 -0 -1 -1 -1 -2 -2 -3 -3 -3 -3 -4 -4 -5 -7 -8 -9 -10 -10 -10 -10 -10 -10 -10 -10 -11 -11 -11 -11 -12 -12 -11 -11 -11 -12 -12
3 2 2 1 1 0 -0 -1 -1 -2 -2 -2 -3 -3 -3 -3 -3 -4 -4 -5 -6 -6 -7 -8 -9 -10 -10 -10 -10 -10 -11 -11 -11 -12 -12 -13 -13 -13 -13 -13 -12 -12 -12
Wind_Speed
8 7 6 7 7 6 7 9 13 14 14 12 9 8 7 7 8 7 11 13 13 13 9 5 5 5 6 5 5 4 4 4 5 4 5 5 5 3 8 7 6 8 10
8 7 6 6 7 7 9 11 12 11 11 9 7 6 7 6 6 6 9 12 12 11 8 6 6 6 5 6 6 5 3 3 4 3 3 5 6 5 9 4 5 7 8
15 10 9 8 9 9 10 11 11 12 13 12 12 11 8 5 5 6 5 7 11 11 10 8 5 6 5 4 4 4 4 3 3 3 4 4 4 7 4 4 4 7 7
12 11 11 10 10 9 9 12 12 13 13 13 14 14 9 7 5 4 5 6 9 10 10 8 6 5 4 4 4 3 3 2 3 3 2 1 3 4 6 5 6 7 8
17 16 14 13 11 10 10 11 12 12 11 10 12 11 9 6 6 7 8 6 6 8 8 8 5 4 3 3 3 4 4 3 2 2 3 2 3 5 5 9 8 8 7
15 12 10 12 11 10 10 11 12 10 10 11 10 11 11 11 10 8 7 5 4 5 5 5 4 3 2 3 3 3 4 4 3 3 3 3 4 5 5 9 13 10 7
18 17 16 15 15 13 11 11 12 11 10 11 10 10 11 10 10 9 7 6 3 2 2 2 2 2 3 3 3 4 5 4 4 4 4 4 5 5 6 10 15 16 9
19 19 18 17 16 15 12 12 13 12 11 12 11 10 10 8 7 8 7 6 4 3 1 1 2 3 4 4 4 4 4 4 5 6 6 5 5 4 5 7 13 18 13
20 18 16 15 15 14 13 13 14 12 11 12 12 10 10 10 9 8 6 4 3 2 2 2 3 4 4 5 5 4 6 6 5 6 6 4 4 5 6 6 7 10 18
18 17 16 15 13 12 11 11 12 13 12 11 10 10 9 9 8 7 6 5 3 3 2 3 4 5 5 6 5 6 7 7 7 6 6 5 5 6 6 7 7 8 13
20 18 15 13 12 12 11 11 11 12 11 10 10 10 9 9 8 6 5 4 3 3 3 4 5 6 6 7 7 7 8 8 8 7 6 7 8 7 7 8 8 9 10
17 16 15 13 13 13 12 11 10 10 10 10 10 10 9 8 7 6 5 4 3 3 3 4 6 7 7 7 8 9 9 8 8 8 7 7 9 10 9 9 9 11 11
15 13 14 14 14 13 11 11 10 10 10 10 10 9 8 7 6 5 4 3 3 3 4 5 6 7 8 8 8 8 8 8 8 8 7 7 9 11 10 12 12 10 12
18 16 14 12 12 12 11 11 10 10 10 10 9 8 7 6 6 4 3 3 3 4 5 6 7 7 8 8 8 8 9 9 8 7 7 8 9 11 12 12 10 11 13
17 17 16 14 13 12 11 11 10 10 11 10 9 7 6 5 5 4 2 2 3 5 6 6 7 8 8 8 11 9 9 9 9 8 8 9 15 20 17 16 14 14 14
17 17 15 15 15 14 13 12 11 10 10 10 8 7 6 5 4 2 2 4 5 5 6 6 7 8 10 17 21 17 10 9 9 9 9 11 14 18 24 28 27 25 20
16 17 16 15 14 14 15 14 12 10 10 9 7 6 6 5 3 3 4 4 5 5 6 7 7 8 11 20 21 22 13 9 9 10 11 13 15 19 13 21 26 23 29
15 14 14 13 12 11 13 12 11 10 9 8 7 6 5 4 3 3 3 4 4 5 5 7 8 8 11 20 21 23 11 9 9 10 11 12 12 15 20 18 17 15 14
12 12 12 13 13 14 14 13 11 9 9 8 7 6 5 4 2 2 3 3 4 5 5 6 8 8 11 18 21 22 9 9 10 10 10 13 13 24 30 22 18 15 13
13 14 14 15 14 12 13 13 11 9 8 7 6 5 4 3 2 3 3 3 4 5 7 7 7 8 9 16 22 22 8 9 10 9 9 17 22 28 30 19 14 16 18
15 15 15 13 12 12 12 12 10 8 7 7 6 5 3 2 2 3 3 5 5 6 6 7 7 8 10 16 20 22 11 11 12 12 10 11 27 29 28 25 14 21 22
14 14 14 12 9 10 12 11 9 7 7 6 5 4 3 3 4 4 5 5 5 6 6 6 7 6 8 13 17 22 21 20 12 12 11 14 27 28 27 20 22 27 22
12 11 14 12 8 8 11 11 8 7 7 6 5 4 4 4 4 4 5 5 5 5 6 6 6 7 6 10 20 22 23 23 15 12 21 24 26 24 18 21 25 21 13
11 11 12 11 8 7 8 8 7 7 7 6 4 4 3 3 4 3 4 4 5 6 6 6 8 8 7 7 8 8 11 17 15 12 15 22 22 19 19 18 16 12 13
8 9 10 10 9 8 8 7 7 7 7 5 4 3 2 3 4 4 3 5 4 7 9 6 6 9 9 13 23 18 13 13 14 15 8 9 12 11 12 13 12 13 13
9 10 9 10 9 8 8 7 6 7 6 4 2 1 2 3 3 4 5 9 11 15 16 16 15 12 17 24 24 25 25 24 24 16 11 12 12 13 14 14 15 14 14
Wind_Direction
204 184 153 138 131 126 127 131 131 132 127 126 122 116 107 101 92 84 83 83 81 78 75 68 56 52 58 47 31 12 1 350 344 341 322 323 334 353 3 354 2 353 358
190 169 136 127 129 122 118 122 128 127 126 124 118 114 114 101 89 84 75 77 76 73 73 66 61 52 52 41 33 26 8 347 3 357 349 342 336 347 326 321 357 354 344
181 169 148 135 126 124 128 129 126 123 123 122 118 115 103 90 80 78 74 71 76 73 72 70 68 58 54 41 25 24 27 348 339 13 61 10 316 311 297 319 338 332 314
173 163 153 144 133 130 128 128 129 129 131 131 136 137 134 129 129 121 103 82 75 73 70 69 67 59 51 35 6 23 3 11 358 352 45 211 243 298 308 307 313 309 309
172 168 160 147 133 130 130 130 129 130 130 127 131 127 119 115 116 110 105 89 70 68 67 64 58 45 31 13 3 2 6 9 2 339 319 297 261 234 263 297 306 306 296
166 156 144 136 127 125 127 129 128 126 123 121 121 125 125 126 127 127 120 102 82 60 54 61 52 34 9 350 344 344 350 345 340 327 313 301 291 297 284 297 306 300 287
162 158 153 148 142 138 135 132 130 126 123 118 115 118 123 126 130 133 127 120 102 80 44 47 38 13 347 340 340 340 337 329 325 308 292 282 273 279 291 306 310 306 296
166 164 160 154 148 142 138 135 132 128 124 119 116 114 115 114 113 115 119 122 131 144 115 64 29 8 357 347 340 330 322 316 304 305 300 290 285 290 295 300 310 310 304
166 163 158 154 149 146 143 140 135 128 123 122 119 114 112 110 110 110 109 118 133 130 78 37 14 358 346 335 333 320 310 306 294 295 296 293 290 292 287 287 289 297 305
161 159 159 155 149 142 134 129 130 129 125 122 122 120 111 109 111 113 118 121 109 80 46 11 360 346 334 329 327 315 304 301 297 298 302 300 294 292 292 290 286 282 288
162 161 159 152 141 135 134 131 128 127 124 120 116 115 112 112 115 120 126 126 105 67 22 353 344 335 327 325 319 307 302 299 298 299 303 295 297 301 301 296 291 285 281
157 156 154 146 144 144 141 137 134 129 126 123 117 116 116 119 122 126 126 113 80 32 353 339 336 330 325 318 308 302 307 300 297 292 293 293 311 309 306 300 291 289 281
151 150 151 152 152 149 144 139 135 130 127 123 119 117 121 126 131 130 115 83 45 358 337 337 333 325 319 310 301 295 294 293 288 285 284 289 303 307 303 298 294 291 295
159 158 155 152 150 147 144 139 133 131 129 123 122 125 133 137 136 124 97 56 9 342 338 338 332 325 315 304 300 301 298 295 288 278 274 279 291 298 299 300 295 303 302
164 164 161 156 151 145 140 136 131 129 130 127 128 135 138 132 123 110 75 21 359 352 347 343 334 328 322 321 325 319 311 307 299 285 275 282 304 309 309 309 311 307 303
170 165 160 156 154 148 143 138 134 133 132 132 134 135 132 127 122 103 47 17 3 355 353 342 328 326 335 334 336 335 324 318 313 306 301 299 305 307 314 312 308 307 308
166 164 162 159 154 149 146 144 141 135 131 131 133 134 134 130 114 71 38 13 355 348 337 326 321 319 323 339 340 338 342 334 323 314 310 313 315 316 300 301 307 307 306
157 153 149 143 138 134 135 131 132 132 131 132 135 139 136 126 97 57 21 350 335 331 316 311 312 313 326 340 340 340 345 323 311 306 302 302 304 308 311 310 311 305 306
135 136 135 132 130 133 134 130 128 129 130 135 140 140 134 122 84 23 348 330 321 316 306 304 309 314 322 337 337 336 317 310 305 298 300 310 308 310 316 320 317 318 312
114 118 119 121 125 130 131 130 132 132 135 139 138 135 128 114 57 353 329 317 310 301 305 308 311 312 312 329 335 331 313 310 310 304 299 314 318 318 323 326 325 320 315
108 113 116 120 127 128 127 127 128 134 135 130 127 123 109 75 27 356 327 314 311 311 313 310 310 311 320 331 333 330 330 320 321 321 319 315 321 325 329 330 323 314 321
106 111 113 113 115 122 124 124 130 133 127 123 119 104 72 32 21 357 328 319 319 319 318 317 316 309 312 325 326 330 331 330 325 320 316 318 326 330 330 328 321 324 329
106 108 114 112 106 113 124 129 138 133 123 114 101 76 48 26 10 345 326 323 325 323 319 318 321 321 312 316 326 329 332 331 329 317 321 327 330 330 327 322 325 329 322
109 113 113 115 112 113 116 127 133 124 114 104 86 64 39 6 348 334 321 324 325 324 322 327 328 323 319 311 312 317 323 328 326 320 326 331 329 328 325 325 324 322 317
114 116 120 124 124 121 117 117 116 110 104 96 78 47 7 333 323 325 327 335 318 326 334 325 318 326 325 323 332 335 330 333 328 334 331 327 328 327 326 324 323 323 323
121 120 121 125 127 124 119 112 108 109 109 101 75 339 308 306 318 329 333 346 342 337 337 336 334 327 324 327 333 334 336 338 338 339 331 327 325 324 324 323 322 322 321
Height
1456 1457 1458 1459 1460 1462 1464 1467 1469 1472 1475 1479 1483 1487 1490 1493 1495 1497 1499 1500 1501 1501 1500 1499 1497 1495 1492 1489 1486 1483 1480 1476 1472 1469 1465 1464 1463 1460 1460 1457 1455 1452 1450
1452 1453 1454 1455 1457 1459 1461 1463 1465 1469 1474 1479 1483 1486 1489 1492 1494 1496 1498 1499 1500 1500 1499 1497 1495 1493 1490 1487 1484 1481 1477 1474 1470 1466 1462 1459 1456 1456 1455 1451 1449 1446 1444
1446 1448 1450 1452 1454 1457 1459 1462 1465 1470 1474 1478 1482 1485 1488 1490 1493 1495 1497 1498 1499 1498 1497 1495 1493 1491 1488 1485 1482 1478 1475 1472 1470 1467 1465 1461 1456 1450 1445 1444 1442 1440 1437
1441 1443 1446 1449 1452 1455 1459 1463 1467 1471 1475 1478 1481 1483 1486 1489 1492 1494 1496 1497 1497 1496 1495 1493 1491 1489 1486 1483 1480 1477 1474 1471 1468 1466 1463 1462 1459 1453 1443 1437 1435 1433 1430
1435 1439 1442 1445 1449 1454 1459 1463 1466 1470 1474 1477 1480 1483 1486 1488 1491 1493 1494 1495 1494 1494 1492 1491 1489 1486 1483 1480 1478 1475 1472 1469 1466 1463 1460 1457 1455 1451 1445 1434 1428 1425 1423
1430 1435 1439 1443 1447 1452 1458 1462 1465 1469 1472 1476 1479 1482 1485 1487 1489 1491 1492 1492 1492 1491 1490 1488 1486 1483 1480 1478 1475 1472 1470 1467 1463 1460 1457 1453 1449 1445 1440 1431 1422 1417 1414
1424 1430 1435 1439 1443 1449 1455 1460 1463 1467 1471 1475 1478 1481 1484 1486 1488 1489 1489 1489 1489 1489 1487 1485 1482 1480 1477 1475 1472 1469 1466 1463 1459 1455 1452 1448 1445 1441 1436 1428 1417 1409 1404
1420 1425 1430 1435 1440 1446 1452 1458 1462 1465 1469 1473 1476 1479 1482 1484 1485 1486 1487 1487 1487 1486 1484 1482 1479 1476 1474 1471 1468 1465 1461 1458 1454 1450 1446 1442 1439 1435 1431 1425 1416 1403 1393
1414 1421 1427 1433 1438 1444 1451 1456 1460 1464 1468 1471 1475 1478 1480 1482 1483 1484 1485 1485 1484 1483 1481 1478 1476 1473 1470 1467 1464 1460 1457 1453 1449 1445 1440 1436 1432 1428 1424 1419 1413 1406 1392
1412 1419 1426 1432 1438 1444 1450 1456 1460 1464 1467 1470 1473 1476 1478 1480 1481 1482 1482 1482 1481 1479 1477 1475 1472 1470 1467 1463 1459 1455 1451 1447 1443 1439 1434 1430 1425 1420 1415 1410 1405 1401 1394
1409 1417 1425 1431 1437 1444 1449 1455 1459 1463 1466 1469 1472 1474 1476 1478 1479 1480 1480 1479 1478 1476 1474 1472 1469 1466 1462 1458 1454 1450 1446 1441 1437 1432 1428 1423 1418 1412 1407 1401 1397 1393 1389
1409 1416 1424 1430 1437 1442 1448 1453 1458 1462 1465 1468 1470 1472 1474 1475 1477 1477 1477 1476 1475 1473 1471 1468 1465 1461 1457 1453 1449 1444 1440 1435 1430 1426 1421 1416 1411 1405 1400 1395 1390 1386 1382
1410 1417 1423 1429 1435 1441 1447 1452 1456 1460 1463 1466 1468 1470 1472 1473 1474 1474 1474 1473 1472 1470 1467 1464 1461 1457 1452 1448 1443 1438 1434 1429 1424 1420 1415 1410 1405 1399 1394 1389 1384 1380 1375
1409 1415 1421 1428 1434 1440 1446 1450 1454 1458 1461 1464 1466 1468 1470 1471 1472 1472 1471 1470 1468 1466 1463 1460 1456 1452 1447 1442 1437 1432 1428 1423 1419 1414 1410 1405 1399 1393 1388 1383 1379 1373 1367
1408 1413 1419 1426 1433 1439 1444 1448 1452 1456 1459 1462 1464 1466 1468 1469 1469 1469 1468 1466 1464 1462 1459 1456 1452 1447 1442 1437 1432 1427 1422 1417 1412 1408 1404 1399 1395 1390 1385 1379 1373 1367 1360
1406 1412 1418 1424 1430 1436 1441 1446 1451 1454 1458 1460 1462 1464 1465 1466 1466 1466 1464 1463 1461 1459 1456 1451 1447 1442 1437 1432 1427 1422 1416 1412 1407 1402 1397 1393 1388 1383 1378 1373 1367 1361 1354
1403 1409 1416 1422 1429 1435 1440 1445 1449 1453 1456 1458 1460 1462 1463 1464 1464 1462 1461 1460 1457 1455 1451 1447 1442 1437 1432 1426 1421 1416 1411 1406 1401 1396 1391 1386 1381 1376 1369 1363 1358 1353 1347
1402 1409 1415 1423 1429 1435 1440 1445 1448 1451 1454 1456 1458 1460 1461 1461 1461 1459 1458 1456 1454 1451 1447 1442 1437 1432 1426 1421 1416 1411 1405 1400 1396 1391 1386 1380 1374 1368 1363 1356 1349 1343 1337
1403 1409 1416 1423 1429 1435 1439 1443 1447 1450 1452 1454 1456 1458 1459 1458 1458 1457 1455 1453 1450 1446 1442 1437 1432 1427 1421 1416 1411 1406 1400 1395 1390 1386 1381 1376 1369 1363 1357 1350 1341 1334 1328
1406 1412 1419 1425 1430 1435 1439 1443 1446 1448 1451 1453 1455 1456 1456 1456 1455 1454 1452 1449 1445 1441 1437 1433 1428 1422 1417 1412 1407 1403 1397 1390 1384 1379 1374 1370 1364 1357 1351 1343 1335 1327 1320
1409 1415 1421 1426 1431 1435 1439 1442 1444 1447 1450 1452 1453 1454 1454 1453 1452 1451 1448 1445 1441 1437 1433 1428 1423 1418 1413 1408 1403 1400 1395 1388 1381 1374 1368 1362 1357 1351 1345 1338 1330 1323 1316
1413 1418 1422 1427 1432 1436 1439 1441 1444 1446 1449 1450 1451 1452 1452 1451 1450 1447 1444 1441 1436 1432 1427 1422 1417 1413 1409 1404 1400 1396 1391 1386 1378 1371 1364 1357 1352 1345 1338 1330 1324 1318 1311
1415 1420 1424 1428 1432 1436 1439 1441 1444 1446 1448 1449 1450 1450 1449 1448 1446 1443 1440 1436 1431 1426 1421 1416 1412 1408 1404 1400 1396 1391 1386 1380 1374 1366 1360 1353 1346 1338 1331 1325 1320 1313 1305
1418 1422 1425 1429 1432 1436 1439 1442 1443 1445 1447 1447 1448 1448 1447 1445 1443 1439 1435 1431 1426 1422 1417 1413 1408 1403 1399 1394 1390 1385 1379 1373 1367 1360 1353 1347 1339 1333 1327 1321 1314 1308 1302
1420 1424 1427 1430 1433 1436 1439 1441 1443 1444 1445 1446 1446 1445 1444 1442 1439 1436 1432 1427 1423 1420 1415 1410 1405 1400 1394 1390 1387 1381 1374 1368 1362 1355 1347 1340 1334 1327 1321 1316 1310 1304 1298
1421 1424 1428 1431 1433 1436 1439 1440 1442 1443 1444 1444 1444 1443 1441 1438 1435 1431 1429 1425 1421 1417 1413 1408 1403 1397 1393 1387 1381 1376 1370 1363 1357 1350 1343 1337 1331 1326 1319 1313 1307 1301 1295